Wind from 291 at 0 knots gusting 6

Air temperature 18.3° C
Dewpoint 16.8° C

Last reported at 2014-Apr-24 01:48 UTC.
Time now 2014-Apr-24 02:10 UTC

Location: S 36°52' E 174°44'.
View on Google Maps.

See reports from other nearby stations

Tides Stations Pressure Air Temp Water Temp Dewpoint Dewpoint depression Visibility Wind Speed Wind Dir Waves Ship positions

  
sailing weather and tide predictions

CW4778 Auckland NZ weather

date/time (UTC)wind fromknots sea level pressurealtimeterstation pressurevisibilityair tempwater tempwave heightnotes
2014-Apr-24 01:48 291 0 gusting 6 18.3
2014-Apr-24 01:38 275 2 gusting 8 18.3
2014-Apr-24 01:28 259 0 gusting 6 18.3
2014-Apr-24 01:18 211 0 gusting 5 18.9
2014-Apr-24 01:08 266 18.3
2014-Apr-24 00:58 246 18.3
2014-Apr-24 00:48 277 0 gusting 5 18.3
2014-Apr-24 00:38 290 0 gusting 5 18.3
2014-Apr-24 00:28 275 1 gusting 5 18.3
2014-Apr-24 00:18 291 0 gusting 7 18.3
2014-Apr-24 00:08 291 1 gusting 6 18.3
2014-Apr-23 23:58 274 2 gusting 7 18.3
2014-Apr-23 23:48 282 1 gusting 8 18.9
2014-Apr-23 23:38 297 3 gusting 8 19.4
2014-Apr-23 23:28 278 1 gusting 8 18.9
2014-Apr-23 23:18 300 4 gusting 7 18.9
2014-Apr-23 23:08 321 1 gusting 5 18.9
2014-Apr-23 22:58 309 1 gusting 6 18.3
2014-Apr-23 22:48 288 0 gusting 4 18.9
2014-Apr-23 22:38 322 16.7
2014-Apr-23 22:28 321 16.1
2014-Apr-23 22:18 322 16.1
2014-Apr-23 22:08 321 16.1
2014-Apr-23 21:58 322 16.7
2014-Apr-23 21:48 321 1 gusting 6 17.8
2014-Apr-23 21:38 323 0 gusting 5 17.2
2014-Apr-23 21:28 340 1 gusting 4 16.1
2014-Apr-23 21:18 325 0 gusting 5 15.6
2014-Apr-23 21:08 312 0 gusting 4 13.9
2014-Apr-23 20:58 313 0 gusting 1 13.3
2014-Apr-23 20:48 302 12.8
2014-Apr-23 20:38 326 12.8
2014-Apr-23 20:28 295 12.2
2014-Apr-23 20:18 278 12.2
2014-Apr-23 20:08 277 12.2
2014-Apr-23 19:58 275 11.7
2014-Apr-23 19:48 275 11.7
2014-Apr-23 19:38 266 11.7
2014-Apr-23 19:28 267 11.7
2014-Apr-23 19:18 273 11.1
2014-Apr-23 19:08 268 11.1
2014-Apr-23 18:58 270 11.1
2014-Apr-23 18:48 271 11.1
2014-Apr-23 18:38 269 11.1
2014-Apr-23 18:28 270 10.6
2014-Apr-23 18:18 270 10.6
2014-Apr-23 18:08 268 10.6
2014-Apr-23 17:58 268 10.0
2014-Apr-23 17:48 249 10.0
2014-Apr-23 17:38 251 10.0
2014-Apr-23 17:28 251 10.0
2014-Apr-23 17:18 251 10.0
2014-Apr-23 17:08 250 10.0
2014-Apr-23 16:58 304 10.0
2014-Apr-23 16:48 249 9.4
2014-Apr-23 16:38 250 9.4
2014-Apr-23 16:28 250 9.4
2014-Apr-23 16:18 248 10.0
2014-Apr-23 16:08 249 10.0
2014-Apr-23 15:58 249 10.0
2014-Apr-23 15:48 249 10.0
2014-Apr-23 15:38 249 10.0
2014-Apr-23 15:28 248 10.0
2014-Apr-23 15:18 251 10.0
2014-Apr-23 15:08 305 10.0
2014-Apr-23 14:58 250 10.0
2014-Apr-23 14:48 250 10.0
2014-Apr-23 14:38 257 10.0
2014-Apr-23 14:28 249 10.0
2014-Apr-23 14:18 249 10.0
2014-Apr-23 14:08 247 10.0
2014-Apr-23 13:58 250 10.0
2014-Apr-23 13:48 250 10.0
2014-Apr-23 13:38 251 10.0
2014-Apr-23 13:28 249 10.0
2014-Apr-23 13:18 248 10.6
2014-Apr-23 13:08 251 10.6
2014-Apr-23 12:58 251 10.6
2014-Apr-23 12:48 249 10.6
2014-Apr-23 12:38 250 10.6
2014-Apr-23 12:28 249 10.6
2014-Apr-23 12:18 251 10.6
2014-Apr-23 12:08 250 10.6
2014-Apr-23 11:58 247 10.6
2014-Apr-23 11:48 250 10.6
2014-Apr-23 11:38 250 10.6
2014-Apr-23 11:28 250 11.1
2014-Apr-23 11:18 251 11.1
2014-Apr-23 11:08 249 11.1
2014-Apr-23 10:58 250 11.1
2014-Apr-23 10:48 250 11.1
2014-Apr-23 10:38 249 11.1
2014-Apr-23 10:28 249 11.1
2014-Apr-23 10:18 250 11.1
2014-Apr-23 10:08 249 11.1
2014-Apr-23 09:58 250 11.1
2014-Apr-23 09:48 250 11.1
2014-Apr-23 09:38 249 11.1
2014-Apr-23 09:28 249 11.1
2014-Apr-23 09:18 251 11.1
2014-Apr-23 09:08 250 11.1
2014-Apr-23 08:58 251 11.7
2014-Apr-23 08:48 248 11.7
2014-Apr-23 08:38 251 11.7
2014-Apr-23 08:28 250 11.7
2014-Apr-23 08:18 249 11.7
2014-Apr-23 08:08 251 12.2
2014-Apr-23 07:58 250 12.2
2014-Apr-23 07:48 253 12.2
2014-Apr-23 07:38 248 12.2
2014-Apr-23 07:28 254 12.8
2014-Apr-23 07:18 250 12.8
2014-Apr-23 07:08 249 12.8
2014-Apr-23 06:58 250 12.8
2014-Apr-23 06:48 250 13.3
2014-Apr-23 06:38 250 13.3
2014-Apr-23 06:28 250 13.9
2014-Apr-23 06:18 252 13.9
2014-Apr-23 06:08 249 14.4
2014-Apr-23 05:58 252 15.0
2014-Apr-23 05:48 250 15.6
2014-Apr-23 05:38 250 0 gusting 5 15.6
2014-Apr-23 05:28 264 0 gusting 4 16.1
2014-Apr-23 05:18 211 16.7
2014-Apr-23 05:08 233 2 gusting 8 16.7
2014-Apr-23 04:58 247 2 gusting 8 16.7
2014-Apr-23 04:48 250 0 gusting 6 17.2
2014-Apr-23 04:38 248 1 gusting 11 17.2
2014-Apr-23 04:28 242 2 gusting 11 17.8
2014-Apr-23 04:18 272 1 gusting 10 17.8
2014-Apr-23 04:08 261 5 gusting 11 17.8
2014-Apr-23 03:58 215 2 gusting 10 18.3
2014-Apr-23 03:48 223 5 gusting 8 18.3
2014-Apr-23 03:38 260 3 gusting 11 18.9
2014-Apr-23 03:28 137 1 gusting 6 18.9
2014-Apr-23 03:18 234 1 gusting 7 17.8
2014-Apr-23 03:08 190 3 gusting 11 17.8
2014-Apr-23 02:58 246 4 gusting 10 18.3
2014-Apr-23 02:48 176 4 gusting 10 18.3
2014-Apr-23 02:38 198 5 gusting 10 18.9
2014-Apr-23 02:28 212 4 gusting 8 18.3
2014-Apr-23 02:18 206 4 gusting 11 17.8
2014-Apr-23 02:08 194 6 gusting 11 18.3
2014-Apr-23 01:58 199 5 gusting 12 17.8
2014-Apr-23 01:48 215 5 gusting 11 18.9
2014-Apr-23 01:38 198 5 gusting 10 18.9
2014-Apr-23 01:28 238 5 gusting 10 19.4
2014-Apr-23 01:18 224 4 gusting 8 19.4
2014-Apr-23 01:08 322 2 gusting 10 17.8
2014-Apr-23 00:58 213 2 gusting 7 17.8
2014-Apr-23 00:48 228 6 gusting 11 18.3
2014-Apr-23 00:38 187 4 gusting 7 19.4
2014-Apr-23 00:28 203 4 gusting 8 18.3
2014-Apr-23 00:18 206 3 gusting 8 20.0
2014-Apr-23 00:08 197 2 gusting 10 20.0
2014-Apr-22 23:58 167 1 gusting 6 18.9
2014-Apr-22 23:48 230 0 gusting 8 17.8
2014-Apr-22 23:38 191 3 gusting 11 18.9
2014-Apr-22 23:28 228 1 gusting 6 20.0
2014-Apr-22 23:18 169 3 gusting 7 18.9
2014-Apr-22 23:08 238 3 gusting 8 18.3
2014-Apr-22 22:58 198 2 gusting 10 17.8
2014-Apr-22 22:48 146 2 gusting 10 18.3
2014-Apr-22 22:38 182 0 gusting 6 18.9
2014-Apr-22 22:28 179 0 gusting 7 19.4
2014-Apr-22 22:18 266 1 gusting 5 18.9
2014-Apr-22 22:08 194 0 gusting 1 18.3
2014-Apr-22 21:58 205 18.3
2014-Apr-22 21:48 200 17.8
2014-Apr-22 21:38 201 17.2
2014-Apr-22 21:28 202 16.7
2014-Apr-22 21:18 201 16.7
2014-Apr-22 21:08 200 15.6
2014-Apr-22 20:58 202 13.9
2014-Apr-22 20:48 200 14.4
2014-Apr-22 20:38 201 14.4
2014-Apr-22 20:28 201 15.0
2014-Apr-22 20:18 203 13.3
2014-Apr-22 20:08 201 13.3
2014-Apr-22 19:58 201 13.3
2014-Apr-22 19:48 201 12.8
2014-Apr-22 19:38 202 12.2
2014-Apr-22 19:28 201 11.7
2014-Apr-22 19:18 202 11.1
2014-Apr-22 19:08 201 11.1
2014-Apr-22 18:58 201 10.6
2014-Apr-22 18:48 201 10.6
2014-Apr-22 18:38 200 10.6
2014-Apr-22 18:28 200 10.6
2014-Apr-22 18:18 201 10.6
2014-Apr-22 18:08 201 10.6
2014-Apr-22 17:58 201 10.6
2014-Apr-22 17:48 202 10.6
2014-Apr-22 17:38 200 11.1
2014-Apr-22 17:28 201 11.1
2014-Apr-22 17:18 201 11.1
2014-Apr-22 17:08 201 11.7
2014-Apr-22 16:58 201 11.7
2014-Apr-22 16:48 200 11.7
2014-Apr-22 16:38 201 11.1
2014-Apr-22 16:28 200 11.1
2014-Apr-22 16:18 199 11.1
2014-Apr-22 16:08 201 11.1
2014-Apr-22 15:58 200 11.1
2014-Apr-22 15:48 201 11.1
2014-Apr-22 15:38 199 11.1
2014-Apr-22 15:28 200 11.1
2014-Apr-22 15:18 200 11.7
2014-Apr-22 15:08 201 11.7
2014-Apr-22 14:58 200 11.7
2014-Apr-22 14:48 201 12.2
2014-Apr-22 14:38 201 12.2
2014-Apr-22 14:28 200 12.2
2014-Apr-22 14:18 201 12.2
2014-Apr-22 14:08 201 12.8
2014-Apr-22 13:58 201 12.8
2014-Apr-22 13:48 200 12.8
2014-Apr-22 13:38 199 12.8
2014-Apr-22 13:28 200 12.2
2014-Apr-22 13:18 204 12.8
2014-Apr-22 13:08 200 12.8
2014-Apr-22 12:58 201 12.8
2014-Apr-22 12:48 202 12.8
2014-Apr-22 12:38 200 12.8
2014-Apr-22 12:28 201 13.3
2014-Apr-22 12:18 199 13.3
2014-Apr-22 12:08 202 13.3
2014-Apr-22 11:58 195 13.3
2014-Apr-22 11:48 200 13.3
2014-Apr-22 11:38 202 13.9
2014-Apr-22 11:28 172 0 gusting 4 13.9
2014-Apr-22 11:18 249 13.9
2014-Apr-22 11:08 247 0 gusting 6 13.9
2014-Apr-22 10:58 217 1 gusting 6 14.4
2014-Apr-22 10:48 237 14.4
2014-Apr-22 10:38 232 14.4
2014-Apr-22 10:28 230 14.4
2014-Apr-22 10:18 224 0 gusting 4 14.4
2014-Apr-22 10:08 179 13.9
2014-Apr-22 09:58 179 14.4
2014-Apr-22 09:48 180 14.4
2014-Apr-22 09:38 179 14.4
2014-Apr-22 09:28 212 14.4
2014-Apr-22 09:18 210 14.4
2014-Apr-22 09:08 198 14.4
2014-Apr-22 08:58 223 14.4
2014-Apr-22 08:48 206 14.4
2014-Apr-22 08:38 205 14.4
2014-Apr-22 08:28 194 14.4
2014-Apr-22 08:18 209 0 gusting 5 14.4
2014-Apr-22 08:08 269 14.4
2014-Apr-22 07:58 269 14.4
2014-Apr-22 07:48 271 15.0
2014-Apr-22 07:38 244 14.4
2014-Apr-22 07:28 232 15.0
2014-Apr-22 07:18 230 15.0
2014-Apr-22 07:08 249 15.0
2014-Apr-22 06:58 262 1 gusting 6 15.0
2014-Apr-22 06:48 282 15.0
2014-Apr-22 06:38 276 15.0
2014-Apr-22 06:28 273 15.6
2014-Apr-22 06:18 274 15.6
2014-Apr-22 06:08 273 15.6
2014-Apr-22 05:58 273 16.1
2014-Apr-22 05:48 272 16.1
2014-Apr-22 05:38 268 0 gusting 6 16.1
2014-Apr-22 05:28 230 16.7
2014-Apr-22 05:18 242 2 gusting 6 16.7
2014-Apr-22 05:08 283 17.2
2014-Apr-22 04:58 266 3 gusting 10 17.2
2014-Apr-22 04:48 256 5 gusting 10 17.2
2014-Apr-22 04:38 248 3 gusting 11 17.2
2014-Apr-22 04:28 274 6 gusting 11 17.8
2014-Apr-22 04:18 247 2 gusting 11 18.3
2014-Apr-22 04:08 297 4 gusting 12 18.3
2014-Apr-22 03:58 233 3 gusting 11 18.9
2014-Apr-22 03:48 266 2 gusting 11 18.9
2014-Apr-22 03:38 272 4 gusting 11 18.9
2014-Apr-22 03:28 263 2 gusting 12 18.9
2014-Apr-22 03:18 254 2 gusting 11 18.9
2014-Apr-22 03:08 286 5 gusting 11 19.4
2014-Apr-22 02:58 276 3 gusting 13 20.0
2014-Apr-22 02:48 280 3 gusting 11 20.0
2014-Apr-22 02:38 285 4 gusting 13 20.0
2014-Apr-22 02:28 266 5 gusting 13 19.4
2014-Apr-22 02:18 256 5 gusting 11 20.0
2014-Apr-22 02:08 233 1 gusting 11 19.4